User: anonymous   Login
Location: Unspecified
(0.0000°N, 0.0000°E)
Time: 13:23:44
(UTC+00:00)
Language:

MOZHAYETS - Orbit

View from above orbital plane
View from above orbital plane
View from above satellite
View from above satellite

Ground track
Ground track

The orbit data is extracted from the following two-line orbital elements,

1 27560U 02054B   21267.14355220  .00000026  00000-0  16544-4 0  9993
2 27560  98.4221  61.5361 0039998 321.0076  38.8227 14.57950662999278
Epoch (UTC): 24 September 2021 03:26:42
Eccentricity: 0.0039998
inclination: 98.4221°
perigee height: 671 km
apogee height: 728 km
right ascension of ascending node: 61.5361°
argument of perigee: 321.0076°
revolutions per day: 14.57950662
mean anomaly at epoch: 38.8227°
orbit number at epoch: 99927

The dashed part of the orbit path shows where the satellite is in the earth's shadow,  

DLR